Temp
7 7 6 5 5 4 5 6 6 5 4 4 3 3 3 2 1 0 -1 -2 -2 -3 -3 -4 -5 -5 -6 -7 -7 -8 -10 -11 -11 -12 -12 -12 -12 -13 -13 -11 -11 -7 -4 -4
7 7 6 3 5 4 4 4 4 4 4 4 3 3 3 2 1 -1 -1 -2 -2 -3 -3 -4 -5 -6 -7 -7 -8 -9 -10 -10 -11 -11 -12 -12 -13 -13 -13 -12 -11 -10 -6 -4
8 6 6 5 4 5 4 4 4 3 4 4 3 5 3 2 1 0 -0 -1 -2 -3 -4 -5 -6 -7 -8 -8 -9 -9 -10 -11 -11 -13 -12 -13 -13 -13 -12 -12 -11 -11 -9 -5
6 6 6 5 4 5 5 4 5 3 3 5 4 5 4 2 2 1 -0 -1 -3 -4 -5 -6 -7 -7 -8 -9 -9 -10 -11 -12 -12 -12 -13 -13 -14 -13 -13 -13 -12 -11 -10 -6
7 6 6 4 5 5 3 4 4 4 3 4 5 6 4 3 1 0 -1 -2 -3 -4 -5 -6 -6 -7 -8 -9 -10 -11 -11 -12 -12 -13 -13 -14 -14 -14 -14 -13 -12 -11 -10 -7
7 6 6 5 5 4 4 3 4 3 3 5 4 4 4 2 0 -1 -2 -3 -3 -4 -5 -4 -6 -7 -7 -8 -8 -10 -12 -12 -13 -14 -14 -13 -14 -14 -14 -13 -12 -10 -9 -6
6 5 6 6 4 3 3 4 8 6 6 5 3 3 3 2 -0 -1 -2 -2 -3 -4 -5 -5 -5 -6 -7 -7 -8 -9 -11 -12 -13 -14 -14 -14 -14 -14 -14 -13 -11 -10 -8 -7
8 7 5 5 5 4 3 3 3 3 5 5 3 3 3 1 0 -0 -2 -2 -3 -4 -4 -5 -5 -5 -7 -7 -7 -8 -9 -10 -12 -13 -13 -13 -14 -14 -13 -11 -11 -10 -9 -7
5 6 6 5 5 4 3 2 2 1 3 3 6 4 3 2 1 -0 -1 -2 -2 -3 -3 -4 -4 -5 -6 -7 -8 -8 -8 -9 -10 -11 -11 -12 -12 -12 -12 -12 -11 -10 -9 -8
4 5 5 5 5 4 3 3 2 2 3 3 5 5 4 3 2 0 -1 -2 -1 -2 -2 -3 -4 -5 -5 -6 -7 -7 -8 -9 -9 -9 -10 -10 -11 -11 -12 -13 -12 -11 -10 -9
4 3 4 4 4 3 3 3 1 1 2 3 3 4 3 2 1 1 -1 -0 -0 -1 -2 -3 -4 -4 -5 -6 -7 -8 -8 -9 -9 -9 -9 -10 -10 -10 -11 -12 -12 -13 -11 -9
4 4 4 5 5 4 3 2 2 1 3 2 2 1 2 2 1 0 1 1 -0 -1 -1 -2 -3 -4 -4 -5 -7 -8 -8 -8 -9 -9 -9 -9 -10 -10 -11 -12 -13 -12 -10 -9
4 3 3 4 4 4 3 2 1 1 0 -0 2 4 3 2 1 2 2 1 0 -0 -1 -2 -3 -4 -4 -5 -5 -6 -7 -8 -9 -9 -9 -9 -10 -10 -11 -11 -12 -11 -10 -10
4 3 3 4 4 3 3 3 2 1 -0 1 2 3 3 3 3 3 2 1 1 0 -0 -1 -2 -3 -4 -4 -4 -5 -6 -7 -8 -9 -9 -9 -9 -10 -10 -10 -10 -10 -11 -10
3 3 2 2 3 2 2 3 2 2 2 0 5 3 4 3 3 3 3 2 1 0 -0 -1 -1 -2 -3 -4 -4 -4 -5 -6 -7 -8 -8 -9 -9 -9 -9 -9 -10 -9 -10 -10
3 3 2 2 3 3 3 4 2 3 2 2 3 4 3 3 2 2 2 2 1 1 1 -0 -1 -1 -2 -3 -3 -4 -4 -5 -6 -7 -8 -8 -8 -9 -9 -9 -9 -8 -9 -9
1 1 0 1 3 2 3 5 5 5 4 4 3 4 3 3 3 3 3 2 2 1 1 0 -0 -0 -1 -2 -3 -3 -4 -4 -4 -5 -6 -7 -8 -8 -8 -8 -8 -8 -8 -8
0 -0 -0 0 1 0 5 5 4 4 4 3 4 4 3 2 3 3 3 2 2 2 1 1 0 0 -0 -1 -2 -2 -3 -3 -4 -4 -5 -6 -6 -7 -7 -7 -7 -7 -7 -7
1 0 -0 0 2 2 5 5 5 4 5 4 3 3 3 2 3 2 3 2 2 2 2 1 1 0 0 -0 -1 -1 -2 -3 -3 -4 -4 -4 -5 -5 -6 -6 -7 -7 -6 -6
0 1 -1 -0 0 2 5 4 4 4 4 4 3 3 2 2 3 2 3 3 2 2 2 2 1 0 0 0 -0 -1 -1 -2 -2 -3 -3 -4 -4 -4 -4 -5 -5 -6 -6 -6
1 -1 1 -1 -1 1 6 3 4 3 4 3 3 2 2 2 3 3 3 3 3 2 2 2 1 1 0 0 -0 -0 -1 -1 -2 -2 -2 -3 -3 -3 -4 -4 -4 -4 -4 -4
2 1 -1 -1 0 1 4 4 4 4 3 3 3 3 3 3 4 3 3 3 3 2 2 2 1 1 1 0 0 -0 -0 -1 -1 -1 -2 -2 -3 -3 -3 -3 -3 -3 -4 -4
3 2 2 1 2 3 2 2 2 2 2 2 2 3 3 4 3 3 3 3 3 2 2 2 2 1 1 0 0 0 -0 -1 -1 -1 -2 -2 -2 -2 -3 -3 -3 -3 -3 -4
1 2 2 1 4 3 2 2 2 2 2 2 2 2 3 3 3 3 3 3 2 2 2 2 1 1 1 1 0 -0 -0 -0 -1 -1 -1 -2 -2 -2 -2 -3 -3 -3 -3 -3
2 2 2 2 3 2 2 2 2 2 2 2 2 2 2 3 3 3 3 2 2 2 2 2 1 1 1 0 0 -0 -0 -1 -1 -1 -1 -2 -2 -2 -2 -3 -3 -3 -3 -4
3 4 2 3 5 2 3 2 2 2 3 2 2 4 3 3 3 3 3 2 2 1 1 1 1 1 1 0 0 -0 -1 -1 -1 -1 -1 -2 -2 -2 -2 -3 -3 -3 -4 -4
Height
3175 3174 3172 3171 3171 3173 3173 3172 3171 3170 3167 3165 3166 3165 3165 3163 3158 3156 3152 3148 3145 3140 3134 3128 3121 3114 3108 3103 3096 3090 3083 3074 3067 3067 3063 3060 3060 3058 3057 3057 3058 3060 3063 3070
3177 3175 3174 3174 3173 3172 3172 3171 3170 3168 3165 3164 3164 3162 3162 3160 3157 3152 3148 3147 3141 3135 3129 3121 3114 3107 3101 3097 3092 3085 3075 3066 3063 3059 3059 3056 3054 3053 3053 3053 3053 3055 3056 3063
3177 3179 3176 3175 3175 3173 3171 3170 3167 3168 3165 3165 3161 3159 3160 3157 3156 3153 3151 3145 3137 3130 3122 3115 3108 3101 3095 3091 3086 3080 3071 3062 3058 3055 3053 3051 3050 3050 3048 3047 3050 3049 3051 3053
3180 3178 3177 3178 3176 3173 3173 3168 3166 3166 3166 3165 3163 3161 3159 3159 3157 3155 3148 3139 3132 3125 3119 3111 3104 3097 3091 3085 3080 3072 3066 3060 3055 3053 3049 3047 3046 3044 3043 3043 3042 3044 3044 3046
3182 3180 3178 3177 3175 3173 3172 3168 3166 3165 3165 3164 3162 3159 3158 3158 3155 3151 3143 3135 3129 3123 3115 3108 3100 3092 3087 3083 3076 3067 3061 3056 3049 3049 3045 3043 3042 3040 3038 3038 3038 3040 3040 3042
3181 3179 3178 3177 3174 3172 3168 3165 3163 3164 3164 3162 3161 3161 3159 3155 3152 3145 3139 3132 3128 3120 3113 3105 3096 3089 3083 3077 3071 3064 3057 3052 3048 3045 3043 3040 3038 3036 3034 3034 3034 3034 3036 3040
3180 3178 3177 3177 3175 3172 3171 3164 3159 3161 3161 3159 3158 3159 3157 3154 3148 3142 3137 3132 3125 3118 3110 3101 3093 3086 3080 3074 3069 3062 3055 3050 3046 3043 3040 3038 3035 3033 3032 3030 3030 3030 3033 3036
3182 3179 3178 3177 3176 3174 3172 3171 3172 3170 3162 3160 3158 3156 3155 3150 3146 3143 3136 3130 3123 3115 3108 3100 3092 3084 3078 3072 3067 3061 3055 3049 3045 3041 3038 3035 3033 3031 3029 3028 3029 3028 3030 3033
3182 3181 3178 3177 3175 3175 3173 3173 3172 3171 3165 3163 3154 3153 3152 3150 3147 3140 3134 3128 3120 3113 3106 3099 3091 3082 3076 3070 3065 3060 3055 3049 3044 3040 3036 3033 3031 3029 3028 3028 3028 3027 3027 3030
3184 3182 3178 3176 3174 3173 3173 3173 3172 3171 3167 3161 3153 3151 3150 3147 3142 3137 3132 3125 3119 3112 3106 3098 3090 3083 3076 3068 3063 3059 3054 3049 3045 3041 3037 3034 3032 3030 3029 3028 3028 3027 3026 3027
3181 3182 3179 3176 3173 3174 3172 3172 3171 3170 3169 3166 3159 3151 3147 3145 3139 3135 3130 3124 3118 3111 3105 3098 3091 3084 3076 3069 3063 3058 3053 3049 3044 3040 3037 3034 3033 3031 3030 3029 3028 3026 3025 3025
3181 3179 3177 3176 3172 3171 3171 3170 3170 3170 3167 3165 3162 3151 3146 3141 3137 3133 3129 3124 3117 3110 3104 3098 3091 3084 3077 3070 3064 3058 3053 3049 3045 3041 3038 3036 3033 3032 3030 3028 3028 3026 3025 3025
3179 3178 3176 3174 3172 3169 3167 3167 3167 3167 3166 3160 3160 3149 3145 3141 3137 3134 3128 3122 3117 3110 3104 3098 3092 3086 3079 3072 3066 3060 3054 3051 3047 3043 3039 3037 3035 3032 3030 3028 3027 3026 3025 3026
3176 3175 3176 3174 3171 3170 3167 3166 3165 3164 3162 3156 3151 3144 3144 3141 3136 3132 3127 3122 3117 3110 3104 3098 3092 3086 3080 3074 3068 3062 3055 3051 3048 3044 3040 3038 3036 3034 3032 3031 3029 3028 3027 3026
3174 3171 3171 3169 3165 3163 3160 3157 3158 3157 3153 3152 3145 3143 3140 3136 3133 3128 3125 3120 3115 3110 3104 3098 3093 3087 3082 3075 3070 3064 3058 3053 3049 3046 3043 3040 3038 3037 3035 3034 3033 3031 3029 3028
3168 3167 3165 3161 3160 3158 3154 3150 3150 3149 3148 3144 3141 3138 3135 3132 3129 3124 3121 3117 3114 3110 3104 3099 3094 3088 3083 3078 3072 3067 3062 3057 3051 3047 3044 3042 3040 3038 3038 3037 3036 3035 3033 3031
3166 3164 3164 3157 3158 3154 3148 3144 3143 3143 3141 3140 3138 3135 3132 3131 3127 3124 3121 3118 3113 3109 3105 3099 3094 3089 3084 3080 3075 3070 3064 3059 3055 3050 3046 3044 3042 3040 3039 3039 3038 3038 3037 3035
3163 3163 3163 3156 3154 3153 3145 3143 3141 3140 3138 3136 3133 3131 3130 3128 3125 3120 3117 3113 3110 3107 3103 3099 3094 3089 3085 3081 3076 3072 3068 3063 3059 3055 3050 3047 3045 3043 3041 3040 3040 3039 3039 3040
3157 3158 3159 3157 3153 3146 3138 3137 3137 3136 3134 3132 3130 3130 3128 3124 3121 3118 3115 3112 3109 3106 3103 3098 3095 3090 3085 3081 3077 3074 3070 3066 3062 3058 3054 3050 3047 3045 3043 3042 3041 3041 3040 3041
3154 3154 3157 3153 3151 3145 3139 3135 3133 3132 3129 3128 3128 3127 3125 3120 3117 3116 3111 3110 3107 3105 3101 3098 3094 3090 3086 3082 3079 3075 3071 3067 3063 3060 3057 3054 3051 3048 3046 3044 3043 3042 3042 3042
3149 3149 3147 3148 3146 3135 3131 3131 3130 3131 3132 3126 3125 3123 3120 3117 3113 3112 3108 3106 3104 3101 3099 3096 3093 3089 3085 3081 3078 3075 3071 3069 3066 3062 3059 3056 3054 3051 3048 3046 3045 3044 3044 3043
3145 3146 3143 3143 3142 3133 3126 3126 3128 3128 3123 3121 3119 3117 3114 3111 3108 3107 3104 3101 3100 3098 3096 3093 3090 3087 3084 3081 3078 3075 3071 3069 3066 3063 3061 3058 3055 3052 3051 3048 3046 3045 3044 3042
3142 3139 3138 3135 3127 3125 3124 3122 3120 3119 3115 3114 3113 3111 3108 3107 3106 3103 3100 3097 3095 3093 3092 3089 3087 3085 3082 3079 3076 3074 3071 3068 3066 3064 3061 3058 3056 3053 3051 3049 3047 3045 3043 3042
3133 3134 3127 3128 3119 3120 3119 3117 3115 3112 3110 3109 3106 3103 3103 3101 3099 3098 3097 3094 3091 3089 3087 3086 3084 3082 3079 3076 3074 3072 3070 3067 3064 3061 3059 3057 3055 3053 3050 3048 3046 3044 3042 3041
3124 3124 3119 3116 3109 3112 3112 3110 3108 3107 3105 3102 3100 3099 3097 3096 3094 3093 3091 3089 3087 3085 3083 3081 3079 3077 3076 3073 3071 3069 3066 3064 3061 3059 3056 3053 3051 3049 3048 3046 3044 3042 3040 3038
3113 3109 3109 3103 3105 3106 3104 3104 3102 3100 3097 3095 3093 3092 3091 3090 3088 3086 3085 3083 3081 3080 3078 3076 3075 3073 3071 3069 3067 3065 3063 3061 3058 3055 3053 3051 3048 3046 3043 3041 3040 3038 3036 3034
Wind_Speed
12 12 16 17 13 9 9 7 6 5 9 10 4 7 8 7 13 15 17 20 23 25 26 24 28 28 25 30 31 30 31 33 37 19 28 36 30 19 20 15 13 19 32 24
5 14 12 11 14 9 9 10 7 5 11 11 10 9 6 6 19 14 16 19 22 23 23 27 29 29 25 22 27 28 30 35 24 26 31 35 19 13 10 8 11 9 27 27
9 7 8 13 11 11 6 14 6 4 9 9 15 3 5 7 16 14 16 23 23 22 25 25 26 26 23 20 22 25 28 33 21 18 26 31 21 16 10 14 11 10 16 31
9 10 11 8 7 11 2 15 5 6 9 7 9 10 3 5 11 17 18 22 24 23 23 27 23 26 21 23 21 23 27 32 24 27 30 20 18 15 12 7 9 10 7 25
5 12 10 9 10 12 7 9 9 9 7 10 1 6 4 12 17 17 19 21 22 23 27 23 29 26 20 17 18 25 30 34 17 20 29 24 16 15 13 9 10 14 16 24
12 7 12 15 10 15 20 20 19 10 7 8 3 6 5 14 18 19 19 20 23 25 22 32 28 26 20 22 24 21 25 23 17 21 22 18 13 15 10 6 9 15 18 20
7 5 11 14 11 11 15 19 5 7 6 2 5 3 7 14 15 16 21 21 24 24 26 32 33 30 21 23 23 21 20 17 13 12 17 14 14 11 8 9 9 8 11 12
7 4 7 16 15 10 9 11 5 4 6 11 9 4 6 14 12 19 19 21 26 25 28 30 33 32 27 22 22 22 22 17 13 14 15 13 11 11 10 8 6 3 6 11
8 5 15 9 16 9 6 5 5 5 7 7 4 2 7 7 17 19 23 27 29 28 28 29 31 33 31 23 21 21 21 20 17 17 15 12 12 10 8 5 5 3 6 9
6 5 11 16 12 8 10 7 2 2 5 5 7 10 2 20 27 25 24 27 32 30 27 27 29 31 32 27 21 21 20 20 18 19 15 14 9 7 6 7 6 4 2 7
8 3 9 15 5 3 8 4 5 5 4 3 5 5 14 20 26 27 29 31 32 30 28 27 27 28 29 30 27 23 21 20 18 18 15 12 11 7 6 6 5 4 4 7
6 7 9 8 15 14 9 6 4 3 2 8 9 11 8 21 24 29 32 29 30 29 27 26 26 30 31 29 27 23 22 20 19 17 15 11 11 10 5 4 5 7 2 5
11 4 9 4 6 12 13 7 7 8 11 11 5 6 14 11 23 28 27 26 26 27 26 26 25 25 28 29 28 25 22 19 19 17 15 12 12 12 7 3 6 4 4 3
13 9 9 13 16 19 23 19 16 12 9 11 20 26 19 22 22 20 22 24 24 24 25 24 25 24 26 27 28 26 25 21 18 17 16 14 13 14 11 7 6 6 6 8
11 15 12 17 22 22 23 22 18 22 29 17 18 23 17 18 20 21 22 23 24 24 24 24 23 23 23 25 27 28 27 23 19 17 15 14 14 14 13 11 8 7 8 9
20 11 16 22 16 16 23 24 19 20 26 31 24 24 16 18 17 23 25 24 23 23 23 22 22 23 23 23 24 26 25 24 21 19 17 14 14 13 13 13 12 11 9 9
13 12 11 10 11 19 19 5 9 14 16 17 22 14 15 15 17 18 18 18 22 22 21 21 21 22 22 22 22 23 24 25 24 21 19 17 14 12 12 13 12 12 11 9
14 10 9 14 13 2 4 12 18 12 15 20 20 11 19 22 19 19 18 22 24 24 23 21 20 21 21 21 21 21 22 23 23 24 22 19 18 14 12 11 11 14 13 12
18 14 9 6 9 20 14 4 9 14 21 14 19 18 21 20 23 16 19 20 21 22 21 21 20 19 20 21 21 21 21 21 22 22 23 22 19 18 15 12 10 9 10 11
14 11 13 6 6 5 4 10 21 18 15 4 5 12 13 21 21 16 23 17 18 19 21 21 20 19 18 19 19 20 20 20 21 21 21 21 20 19 18 16 14 10 7 6
11 12 19 18 10 15 15 12 13 4 5 7 11 18 18 22 25 20 21 20 18 19 19 19 19 19 18 18 18 18 18 19 19 19 19 19 19 19 18 17 16 14 12 8
14 8 10 11 9 13 7 12 15 12 18 25 30 27 29 30 27 23 22 23 21 19 19 19 19 19 18 18 18 19 18 18 18 18 18 18 18 18 17 16 16 15 13 12
23 23 13 12 14 16 17 22 28 32 34 33 33 28 26 23 23 25 27 26 23 20 20 20 19 19 19 17 17 17 19 19 18 18 18 18 18 18 17 17 16 15 15 15
20 24 32 26 30 24 17 24 27 30 29 28 30 30 23 25 23 22 23 24 25 23 21 21 20 20 19 19 18 18 18 18 18 18 18 18 18 18 18 18 19 18 17 17
30 28 31 33 39 32 18 11 13 17 19 22 20 26 25 23 24 22 23 24 23 24 24 22 21 21 19 20 19 18 18 19 18 18 19 19 18 19 19 20 20 20 20 20
36 35 36 38 23 23 21 18 19 24 25 24 26 24 23 26 26 26 24 24 24 23 24 24 22 23 22 21 21 21 20 19 20 20 20 21 21 21 21 22 21 22 23 23
Wind_Direction
94 75 58 49 59 53 33 14 11 341 336 14 343 314 312 300 313 314 307 305 322 321 316 308 301 295 297 295 299 296 280 276 277 299 311 317 303 288 297 256 268 250 231 229
39 39 51 45 30 30 34 21 343 287 340 340 320 311 294 265 319 322 327 341 321 317 312 306 310 307 306 293 297 295 295 284 284 288 317 312 308 298 314 294 264 281 244 225
57 36 33 37 2 44 318 346 337 300 303 299 334 287 285 310 347 345 335 317 317 320 312 312 312 312 312 303 290 292 287 283 294 312 306 313 297 283 303 270 253 277 260 233
31 27 33 11 347 11 5 337 14 332 337 347 333 332 118 342 345 332 325 309 323 321 316 319 316 317 315 314 309 289 288 293 288 319 304 312 310 304 289 262 231 251 240 240
322 15 23 9 352 2 321 352 344 330 315 311 359 339 23 358 341 329 319 322 327 324 324 320 323 329 334 318 307 297 296 313 321 304 300 309 290 286 271 247 232 227 232 235
7 359 13 7 7 5 1 327 286 283 283 249 322 19 283 350 328 323 327 332 325 324 325 330 331 335 325 331 329 327 319 323 322 304 308 301 293 291 298 268 277 228 229 241
330 316 350 3 28 344 351 4 44 227 213 10 338 330 298 308 336 340 338 327 330 328 322 336 336 340 329 336 340 341 328 343 344 330 314 312 306 306 285 290 284 226 225 225
334 285 358 337 355 352 10 28 32 301 342 311 294 240 303 340 9 323 336 328 334 336 336 337 338 342 345 334 340 347 350 350 339 321 322 311 299 301 303 312 293 258 189 209
351 335 315 342 347 11 345 4 332 286 289 271 259 344 338 13 329 336 340 339 340 344 342 339 342 344 350 341 336 345 350 357 348 340 338 333 327 332 338 0 314 264 200 202
332 319 296 325 336 0 13 9 327 307 316 317 318 314 266 321 340 342 348 335 341 343 345 347 346 348 350 354 343 344 347 349 348 352 355 356 356 22 9 351 338 308 235 185
338 300 306 327 314 333 331 327 337 300 243 305 314 296 304 330 341 342 340 338 341 343 349 350 351 351 354 356 352 345 346 344 351 351 354 1 2 10 12 354 348 314 253 179
330 304 296 297 273 302 309 296 281 266 20 275 271 274 294 337 338 331 336 336 341 345 349 353 353 356 357 357 353 344 345 346 350 354 4 1 9 6 359 10 28 313 292 184
324 319 311 222 304 339 338 310 282 264 275 268 280 280 343 333 315 322 330 339 342 344 350 352 357 355 358 359 359 356 350 350 349 356 11 13 9 15 14 45 15 4 80 120
309 291 261 263 284 298 292 283 279 260 250 263 256 284 296 294 313 327 336 342 345 349 351 354 357 357 359 1 6 3 0 2 358 358 6 24 20 26 34 34 46 56 71 98
303 294 285 280 288 291 285 283 265 251 260 254 287 294 319 311 324 336 343 347 349 349 352 352 356 359 1 3 5 8 9 7 10 7 6 13 29 40 45 39 25 54 71 88
305 292 298 302 310 289 292 291 268 255 258 269 291 305 313 329 328 324 336 340 348 349 349 352 355 359 2 5 6 10 12 11 15 17 16 15 20 37 45 48 41 28 51 74
285 298 312 287 304 306 295 336 269 292 286 279 270 318 314 326 323 325 331 342 345 349 350 350 353 358 0 4 7 8 13 18 16 19 22 22 21 29 41 48 47 53 43 47
249 269 281 287 318 274 302 303 290 293 290 269 300 293 312 321 328 334 334 339 344 346 347 350 352 355 360 2 5 8 10 16 19 18 20 24 23 24 31 42 51 53 52 48
260 236 250 259 279 288 329 281 251 303 306 281 266 297 311 301 315 328 326 332 333 338 341 344 349 354 356 358 2 4 7 10 15 20 20 20 23 24 27 31 36 44 51 51
241 238 221 254 254 262 283 304 294 301 311 162 201 299 298 294 305 310 315 323 326 331 335 339 343 349 354 356 357 360 0 3 7 12 16 17 16 20 24 26 32 31 31 37
242 243 240 241 252 268 303 273 286 247 281 272 296 298 295 288 301 320 308 319 322 327 330 333 337 341 346 352 353 354 355 356 357 2 4 7 11 11 13 18 23 23 27 24
252 241 231 226 234 258 293 270 261 286 271 280 293 290 292 296 302 310 314 315 319 322 325 328 331 335 339 342 347 346 349 351 352 352 353 353 355 358 360 2 4 6 8 8
239 240 245 245 256 280 291 290 291 293 292 292 294 292 293 295 297 304 312 316 315 314 319 321 326 328 333 335 337 341 342 343 345 345 343 342 342 341 342 343 344 346 347 345
256 251 256 264 278 287 284 275 267 269 271 283 294 294 285 292 295 296 296 303 308 310 312 315 320 323 325 331 332 335 336 337 337 336 335 333 330 328 326 327 327 327 328 328
268 265 259 263 284 288 305 320 311 297 299 299 285 271 282 289 292 298 296 295 298 302 305 308 312 314 320 320 329 328 330 331 331 330 327 325 323 320 317 315 314 313 311 313
280 287 274 276 281 262 267 272 270 275 278 280 287 291 288 289 295 294 297 291 291 294 297 301 304 304 309 313 317 321 320 324 324 325 324 321 318 314 312 310 306 304 301 300